EW7164 Weather Reports


time (UTC)temp
C
wind
direction
speed
KPH
gust
KPH
rain 1hr
cm
rain 24hr
cm
rain mn
cm
humidity
%
barometer
mb
20260906003915 15 36 14.5 24.1 0.00 0.03 0.03 77 1013.8
20260906003014 15 8 14.5 19.3 0.00 0.03 0.03 79 1013.9
20260906002014 15 4 14.5 20.9 0.00 0.03 0.03 81 1013.9
20260906001016 15 346 16.1 20.9 0.00 0.03 0.03 81 1013.9
20260905235914 15 338 12.9 19.3 0.00 0.03 0.03 80 1013.7
20260905235816 15 331 12.9 24.1 0.00 0.03 0.03 79 1013.8
20260905233918 15 3 12.9 19.3 0.00 0.03 0.03 80 1013.5
20260905233816 15 344 14.5 19.3 0.00 0.03 0.03 80 1013.6
20260905232817 15 329 14.5 22.5 0.00 0.03 0.03 80 1013.6
20260905231817 16 341 19.3 24.1 0.00 0.03 0.03 79 1013.4
20260905230916 16 340 12.9 22.5 0.00 0.03 0.03 76 1013.3
20260905225818 16 332 14.5 19.3 0.00 0.03 0.03 76 1013.1
20260905224915 16 30 14.5 22.5 0.00 0.03 0.03 75 1013.0
20260905223914 16 24 12.9 17.7 0.00 0.03 0.03 76 1012.9
20260905222915 16 32 20.9 25.7 0.00 0.03 0.03 76 1012.7
20260905221916 16 8 16.1 24.1 0.00 0.03 0.03 75 1012.7
20260905220917 16 44 22.5 33.8 0.00 0.03 0.03 74 1012.4
20260905215914 16 30 14.5 20.9 0.00 0.03 0.03 73 1012.4
20260905214915 16 19 17.7 27.4 0.00 0.03 0.03 77 1012.1
20260905213915 17 38 20.9 35.4 0.00 0.03 0.03 72 1011.8
20260905211915 17 11 12.9 19.3 0.00 0.03 0.03 72 1011.5
20260905211014 17 45 8.0 11.3 0.00 0.03 0.03 72 1011.6
20260905210017 17 25 12.9 19.3 0.00 0.03 0.03 72 1011.4
20260905204114 17 24 8.0 11.3 0.00 0.03 0.03 73 1011.2
20260905202116 17 25 19.3 25.7 0.00 0.03 0.03 74 1011.0
20260905201115 17 350 19.3 25.7 0.00 0.03 0.03 75 1011.1
20260905201015 17 332 16.1 25.7 0.00 0.03 0.03 75 1010.9
20260905200015 17 339 3.2 6.4 0.00 0.03 0.03 76 1010.9
20260905195015 17 343 11.3 14.5 0.00 0.03 0.03 79 1010.9
20260905194016 16 323 12.9 17.7 0.00 0.03 0.03 81 1011.0
20260905192015 17 21 20.9 29.0 0.00 0.03 0.03 76 1011.0
20260905191014 17 22 17.7 22.5 0.00 0.03 0.03 74 1011.1
20260905185114 17 15 24.1 35.4 0.00 0.03 0.03 75 1011.1
20260905184115 17 356 9.7 12.9 0.00 0.03 0.03 74 1010.7
20260905183214 18 322 12.9 16.1 0.03 0.03 0.03 72 1010.8
20260905182216 18 326 8.0 11.3 0.03 0.03 0.03 73 1010.7
20260905181314 17 338 9.7 14.5 0.03 0.03 0.03 79 1010.9
20260905180316 16 320 8.0 12.9 0.03 0.03 0.03 81 1011.1
20260905175415 16 4 9.7 12.9 0.03 0.03 0.03 82 1011.1
20260905173416 18 11 24.1 33.8 0.00 0.00 0.00 71 1011.0
20260905172417 19 350 16.1 25.7 0.00 0.00 0.00 67 1010.7
20260905171417 18 9 8.0 17.7 0.00 0.00 0.00 68 1010.8
20260905165517 18 342 19.3 25.7 0.00 0.00 0.00 68 1010.9
20260905164515 17 21 17.7 20.9 0.00 0.00 0.00 69 1011.0
20260905164416 17 34 14.5 19.3 0.00 0.00 0.00 70 1011.0
20260905164315 17 25 16.1 20.9 0.00 0.00 0.00 70 1010.8
20260905163316 17 1 17.7 33.8 0.00 0.00 0.00 71 1010.9
20260905162316 17 29 17.7 25.7 0.00 0.00 0.00 71 1010.9
20260905161315 18 5 19.3 30.6 0.00 0.00 0.00 68 1010.6
20260905160316 18 17 16.1 25.7 0.00 0.00 0.00 67 1010.7
20260905155416 17 18 16.1 22.5 0.00 0.00 0.00 69 1010.8
20260905154417 18 21 17.7 22.5 0.00 0.00 0.00 69 1010.5
20260905152415 18 19 19.3 27.4 0.00 0.00 0.00 69 1010.8
20260905150516 18 19 14.5 22.5 0.00 0.00 0.00 69 1010.6
20260905150417 18 18 19.3 29.0 0.00 0.00 0.00 70 1010.6
20260905145417 18 4 17.7 27.4 0.00 0.00 0.00 71 1010.6
20260905144514 17 350 12.9 19.3 0.00 0.00 0.00 73 1010.9
20260905142516 17 349 17.7 24.1 0.00 0.00 0.00 74 1010.7
20260905141615 16 18 8.0 19.3 0.00 0.00 0.00 75 1010.9
20260905140614 16 10 12.9 17.7 0.00 0.00 0.00 76 1010.9
20260905135617 16 12 19.3 25.7 0.00 0.00 0.00 77 1010.6
20260905134716 16 6 22.5 37.0 0.00 0.00 0.00 78 1010.6
20260905134614 16 14 16.1 22.5 0.00 0.00 0.00 78 1010.6
20260905133615 16 21 12.9 19.3 0.00 0.00 0.00 79 1010.7
20260905132615 16 9 14.5 25.7 0.00 0.00 0.00 79 1010.7
20260905131617 16 21 17.7 25.7 0.00 0.00 0.00 79 1010.5
20260905130714 16 1 16.1 22.5 0.00 0.00 0.00 77 1010.4
20260905125715 16 22 14.5 25.7 0.00 0.00 0.00 79 1010.4
20260905124716 16 14 14.5 19.3 0.00 0.00 0.00 80 1010.4
20260905123716 15 13 12.9 16.1 0.00 0.00 0.00 82 1010.3
20260905122716 15 358 9.7 20.9 0.00 0.00 0.00 82 1010.1
20260905120914 15 19 11.3 14.5 0.00 0.00 0.00 82 1010.2
20260905115915 15 22 16.1 20.9 0.00 0.00 0.00 81 1010.1
20260905114917 15 19 11.3 20.9 0.00 0.00 0.00 80 1009.9
20260905113916 16 11 16.1 24.1 0.00 0.00 0.00 79 1009.7
20260905112914 16 4 14.5 22.5 0.00 0.00 0.00 80 1009.6
20260905111915 16 347 12.9 17.7 0.00 0.00 0.00 81 1009.5
20260905110916 16 33 11.3 22.5 0.00 0.03 0.00 82 1009.5
20260905110014 16 39 16.1 22.5 0.00 0.03 0.00 82 1009.6
20260905105016 16 31 14.5 22.5 0.00 0.03 0.00 82 1009.4
20260905104916 16 17 16.1 25.7 0.00 0.03 0.00 82 1009.4
20260905104014 16 46 16.1 27.4 0.00 0.03 0.00 83 1009.2
20260905102116 16 3 14.5 20.9 0.00 0.03 0.00 87 1009.1
20260905101115 16 20 11.3 16.1 0.00 0.03 0.00 89 1009.0
20260905101015 16 25 8.0 16.1 0.00 0.03 0.00 89 1009.0
20260905100914 16 23 14.5 19.3 0.00 0.03 0.00 89 1008.9
20260905095916 16 24 8.0 11.3 0.00 0.03 0.00 92 1008.9
20260905094917 16 344 11.3 16.1 0.00 0.03 0.00 93 1008.7
20260905094814 16 331 9.7 16.1 0.00 0.03 0.00 93 1008.7
20260905093816 16 337 8.0 11.3 0.00 0.03 0.00 92 1008.6
20260905092816 16 332 4.8 6.4 0.00 0.03 0.00 93 1008.6
20260905091816 16 319 4.8 8.0 0.00 0.03 0.00 93 1008.5
20260905090817 16 347 4.8 8.0 0.00 0.03 0.00 93 1008.4
20260905085916 16 341 9.7 16.1 0.00 0.03 0.00 93 1008.4
20260905084916 16 317 11.3 16.1 0.00 0.03 0.00 93 1008.4
20260905084015 16 323 9.7 12.9 0.00 0.03 0.00 92 1008.3
20260905083916 16 318 11.3 17.7 0.00 0.03 0.00 93 1008.4
20260905082917 16 317 6.4 11.3 0.00 0.03 0.00 93 1008.4
20260905081914 16 327 8.0 12.9 0.00 0.03 0.00 92 1008.4
20260905080915 16 311 6.4 9.7 0.00 0.03 0.00 93 1008.4
20260905080014 16 327 6.4 12.9 0.00 0.03 0.00 92 1008.4
20260905075917 16 343 6.4 9.7 0.00 0.03 0.00 91 1008.4
20260905074915 16 334 14.5 22.5 0.00 0.03 0.00 91 1008.2
20260905073916 16 338 12.9 19.3 0.00 0.03 0.00 91 1008.2
20260905072916 16 315 12.9 16.1 0.00 0.03 0.00 90 1008.4
20260905071915 16 326 9.7 14.5 0.00 0.03 0.00 90 1008.2
20260905065915 16 315 6.4 11.3 0.00 0.03 0.00 89 1008.4
20260905065816 16 315 11.3 16.1 0.00 0.03 0.00 90 1008.2
20260905064816 16 316 12.9 19.3 0.00 0.03 0.00 91 1008.3
20260905063816 16 315 9.7 16.1 0.00 0.03 0.00 91 1008.2
20260905062815 16 315 6.4 8.0 0.00 0.03 0.00 91 1008.1
20260905061914 16 316 11.3 14.5 0.00 0.03 0.00 91 1008.0
20260905061013 16 312 9.7 11.3 0.00 0.03 0.00 92 1008.1
20260905060015 16 324 11.3 16.1 0.00 0.03 0.00 92 1007.9
20260905055916 16 315 14.5 19.3 0.00 0.03 0.00 92 1008.0
20260905055014 16 321 11.3 16.1 0.00 0.03 0.00 92 1008.0
20260905054916 16 325 12.9 20.9 0.00 0.03 0.00 91 1007.9
20260905053114 16 317 12.9 19.3 0.00 0.03 0.00 91 1007.8
20260905053017 16 331 8.0 11.3 0.00 0.03 0.00 91 1007.8
20260905052115 16 308 8.0 17.7 0.00 0.03 0.00 92 1007.8
20260905051116 16 315 9.7 12.9 0.00 0.03 0.00 91 1007.8
20260905051017 16 327 11.3 17.7 0.00 0.03 0.00 92 1007.9
20260905050016 16 303 12.9 17.7 0.00 0.03 0.00 90 1007.9
20260905045016 17 315 11.3 17.7 0.00 0.03 0.00 91 1008.0
20260905044016 17 316 11.3 17.7 0.00 0.03 0.00 90 1008.0
20260905043014 17 310 12.9 16.1 0.00 0.03 0.00 90 1008.0
20260905042918 17 304 12.9 17.7 0.00 0.03 0.00 89 1008.0
20260905041013 17 302 12.9 19.3 0.00 0.03 0.00 90 1008.1
20260905040915 17 311 12.9 17.7 0.00 0.03 0.00 90 1008.0
20260905040014 17 310 16.1 20.9 0.00 0.03 0.00 89 1008.0
20260905035015 17 315 9.7 14.5 0.00 0.03 0.03 89 1008.1
20260905034917 17 314 11.3 12.9 0.00 0.03 0.03 90 1008.0
20260905033929 17 313 12.9 17.7 0.00 0.03 0.03 89 1008.1
20260905033017 17 290 9.7 14.5 0.00 0.03 0.03 90 1008.0
20260905032016 17 294 12.9 19.3 0.00 0.03 0.03 89 1008.0
20260905031016 17 285 9.7 16.1 0.00 0.03 0.03 89 1008.1
20260905030015 18 275 9.7 11.3 0.00 0.03 0.03 88 1008.1
20260905025016 18 294 12.9 17.7 0.00 0.03 0.03 88 1008.0
20260905023116 18 315 11.3 16.1 0.00 0.03 0.03 88 1008.0
20260905022215 18 296 11.3 17.7 0.00 0.05 0.03 88 1008.1
20260905021232 18 290 9.7 14.5 0.00 0.05 0.03 87 1008.0
20260905020216 18 274 14.5 16.1 0.00 0.05 0.03 88 1008.0
20260905015313 18 270 12.9 17.7 0.00 0.05 0.03 88 1008.1
20260905015216 18 275 14.5 19.3 0.00 0.05 0.03 88 1008.1
20260905014315 18 273 16.1 17.7 0.00 0.05 0.03 88 1008.1
20260905013315 18 274 12.9 16.1 0.00 0.05 0.03 87 1008.2
20260905012317 18 291 11.3 16.1 0.00 0.08 0.03 86 1008.1
20260905011316 19 270 11.3 14.5 0.00 0.08 0.03 86 1008.2
20260905010314 19 270 11.3 14.5 0.00 0.08 0.03 85 1008.4
20260905005315 19 270 11.3 14.5 0.00 0.08 0.03 85 1008.4